TimeEDT,TemperatureF,Dew PointF,Humidity,Sea Level PressureIn,VisibilityMPH,Wind Direction,Wind SpeedMPH,Gust SpeedMPH,PrecipitationIn,Events,Conditions,WindDirDegrees,DateUTC
12:01 AM,71.6,68.0,88,29.84,10.0,Calm,Calm,-,N/A,,Clear,0,2013-06-13 04:01:00
12:21 AM,71.6,68.0,88,29.83,10.0,Calm,Calm,-,N/A,,Clear,0,2013-06-13 04:21:00
12:41 AM,69.8,66.2,88,29.83,10.0,Calm,Calm,-,N/A,,Clear,0,2013-06-13 04:41:00
1:01 AM,69.8,68.0,94,29.83,10.0,Calm,Calm,-,N/A,,Clear,0,2013-06-13 05:01:00
1:21 AM,69.8,68.0,94,29.83,10.0,Calm,Calm,-,N/A,,Clear,0,2013-06-13 05:21:00
1:41 AM,69.8,68.0,94,29.82,7.0,Calm,Calm,-,N/A,,Clear,0,2013-06-13 05:41:00
2:01 AM,69.8,68.0,94,29.83,5.0,South,5.8,-,N/A,,Mostly Cloudy,180,2013-06-13 06:01:00
2:21 AM,69.8,68.0,94,29.80,5.0,South,4.6,-,N/A,,Overcast,180,2013-06-13 06:21:00
2:41 AM,69.8,69.8,100,29.79,7.0,SSW,11.5,-,N/A,,Scattered Clouds,210,2013-06-13 06:41:00
3:01 AM,71.6,69.8,94,29.78,7.0,SSE,6.9,-,N/A,,Mostly Cloudy,150,2013-06-13 07:01:00
3:21 AM,71.6,68.0,88,29.78,7.0,Calm,Calm,-,N/A,,Scattered Clouds,0,2013-06-13 07:21:00
3:41 AM,69.8,68.0,94,29.77,7.0,SSE,5.8,-,N/A,,Clear,160,2013-06-13 07:41:00
4:01 AM,69.8,68.0,94,29.76,7.0,ESE,4.6,-,N/A,,Clear,110,2013-06-13 08:01:00
4:21 AM,69.8,64.4,83,29.74,10.0,SE,6.9,-,N/A,,Clear,130,2013-06-13 08:21:00
4:41 AM,68.0,62.6,83,29.73,10.0,SE,3.5,-,N/A,,Clear,130,2013-06-13 08:41:00
5:01 AM,68.0,62.6,83,29.72,10.0,SE,3.5,-,N/A,,Clear,130,2013-06-13 09:01:00
5:21 AM,66.2,62.6,88,29.72,10.0,Calm,Calm,-,N/A,,Clear,0,2013-06-13 09:21:00
5:41 AM,66.2,62.6,88,29.71,10.0,Calm,Calm,-,N/A,,Mostly Cloudy,0,2013-06-13 09:41:00
6:01 AM,64.4,62.6,94,29.70,5.0,Calm,Calm,-,N/A,,Mostly Cloudy,0,2013-06-13 10:01:00
6:21 AM,64.4,62.6,94,29.73,7.0,NW,9.2,-,N/A,,Mostly Cloudy,320,2013-06-13 10:21:00
6:41 AM,64.4,62.6,94,29.75,4.0,SE,5.8,-,N/A,,Overcast,140,2013-06-13 10:41:00
7:01 AM,64.4,62.6,94,29.74,5.0,SSE,5.8,-,N/A,,Mostly Cloudy,160,2013-06-13 11:01:00
7:21 AM,64.4,62.6,94,29.73,7.0,Calm,Calm,-,N/A,,Scattered Clouds,0,2013-06-13 11:21:00
7:41 AM,64.4,64.4,100,29.73,7.0,South,6.9,-,N/A,,Clear,180,2013-06-13 11:41:00
8:02 AM,66.2,64.4,94,29.72,10.0,SSE,8.1,-,N/A,,Mostly Cloudy,150,2013-06-13 12:02:00
8:22 AM,66.2,64.4,94,29.67,7.0,SSE,12.7,-,N/A,,Overcast,150,2013-06-13 12:22:00
8:42 AM,66.2,64.4,94,29.65,10.0,South,10.4,-,N/A,,Overcast,170,2013-06-13 12:42:00
9:02 AM,66.2,64.4,94,29.65,10.0,South,9.2,17.3,N/A,,Scattered Clouds,180,2013-06-13 13:02:00
9:22 AM,68.0,64.4,88,29.66,10.0,South,11.5,16.1,N/A,,Scattered Clouds,170,2013-06-13 13:22:00
9:42 AM,68.0,62.6,83,29.64,10.0,South,10.4,-,N/A,,Scattered Clouds,180,2013-06-13 13:42:00
10:02 AM,68.0,62.6,83,29.63,10.0,South,9.2,-,N/A,,Clear,180,2013-06-13 14:02:00
10:22 AM,68.0,62.6,83,29.65,10.0,SSW,3.5,-,N/A,,Clear,200,2013-06-13 14:22:00
10:42 AM,69.8,64.4,83,29.65,10.0,SSW,4.6,-,N/A,,Clear,200,2013-06-13 14:42:00
11:02 AM,71.6,62.6,73,29.65,10.0,SSE,5.8,-,N/A,,Clear,160,2013-06-13 15:02:00
11:22 AM,69.8,62.6,78,29.64,7.0,SW,8.1,16.1,N/A,,Scattered Clouds,220,2013-06-13 15:22:00
11:42 AM,69.8,64.4,83,29.64,10.0,South,8.1,-,N/A,,Scattered Clouds,170,2013-06-13 15:42:00
12:02 PM,69.8,64.4,83,29.62,10.0,SSE,3.5,16.1,N/A,,Scattered Clouds,150,2013-06-13 16:02:00
12:22 PM,73.4,64.4,73,29.61,10.0,West,4.6,-,N/A,,Scattered Clouds,280,2013-06-13 16:22:00
12:42 PM,77.0,62.6,61,29.60,10.0,WNW,11.5,25.3,N/A,,Clear,290,2013-06-13 16:42:00
1:02 PM,78.8,62.6,57,29.61,10.0,West,11.5,17.3,N/A,,Scattered Clouds,260,2013-06-13 17:02:00
1:22 PM,77.0,60.8,57,29.61,10.0,West,8.1,19.6,N/A,,Mostly Cloudy,260,2013-06-13 17:22:00
1:42 PM,77.0,62.6,61,29.62,10.0,SW,8.1,-,N/A,,Mostly Cloudy,230,2013-06-13 17:42:00
2:02 PM,77.0,60.8,57,29.61,10.0,WSW,8.1,-,N/A,,Scattered Clouds,240,2013-06-13 18:02:00
2:22 PM,73.4,60.8,65,29.62,10.0,West,6.9,16.1,N/A,,Scattered Clouds,260,2013-06-13 18:22:00
2:42 PM,71.6,62.6,73,29.62,7.0,West,4.6,-,N/A,,Overcast,270,2013-06-13 18:42:00
3:02 PM,71.6,62.6,73,29.60,7.0,West,4.6,-,N/A,,Overcast,280,2013-06-13 19:02:00
3:22 PM,71.6,64.4,78,29.60,10.0,SSW,5.8,-,N/A,,Scattered Clouds,210,2013-06-13 19:22:00
3:42 PM,71.6,64.4,78,29.60,10.0,SW,4.6,-,N/A,,Scattered Clouds,220,2013-06-13 19:42:00
4:02 PM,71.6,64.4,78,29.59,10.0,WSW,5.8,-,N/A,,Scattered Clouds,250,2013-06-13 20:02:00
4:22 PM,71.6,62.6,73,29.60,10.0,WNW,9.2,-,N/A,,Mostly Cloudy,290,2013-06-13 20:22:00
4:43 PM,71.6,60.8,69,29.61,10.0,NNW,15.0,23.0,N/A,,Mostly Cloudy,330,2013-06-13 20:43:00
5:03 PM,71.6,60.8,69,29.62,10.0,NNW,10.4,24.2,N/A,,Overcast,330,2013-06-13 21:03:00
5:23 PM,69.8,59.0,68,29.64,10.0,NW,11.5,24.2,N/A,,Overcast,320,2013-06-13 21:23:00
5:43 PM,69.8,59.0,68,29.64,10.0,NW,10.4,25.3,N/A,,Overcast,310,2013-06-13 21:43:00
6:03 PM,69.8,57.2,64,29.65,10.0,NW,10.4,24.2,N/A,,Overcast,320,2013-06-13 22:03:00